Flag for Germany Weather past 2 weeks in Speyer, Rhineland-Palatinate, Germany

Now
82 °F

Passing clouds.


Feels Like: 82 °F
Forecast: 61 / 82 °F
Wind: 12 mph from Northeast

Location: Baden Wurttemberg - Neuostheim

Current Time: Jul 23, 2014 at 12:43:20 AM

Latest Report: Jul 22, 2014 at 6:50 PM


Visibility: N/A

Pressure: 29.95 "Hg

Humidity: 45%

Dew point: 59 °F

Location of SpeyerLocation

Historic Weather in Speyer — Graph

°F

Speyer temperature yesterday

Maximum temperature yesterday: 82 °F (at 3:50 PM)
Minimum temperature yesterday: 68 °F (at 5:20 AM)
Average temperature yesterday: 75 °F

Past Weeks' High & Low Weather Summary

 TemperatureHumidityPressure
High93 °F (Jul 18, 4:50 PM)100% (Jul 11, 5:20 AM)30.18 "Hg (Jul 11, 5:20 AM)
Low55 °F (Jul 9, 6:50 AM)20% (Jul 18, 5:50 PM)29.74 "Hg (Jul 9, 6:50 PM)
Average72 °F67%29.94 "Hg
* Reported Jul 7 6:20 PM — Jul 22 6:50 PM, Speyer, Weather by CustomWeather, © 2014

Note: Actual official high and low records may vary slightly from our data, if they occured in-between our weather recording intervals... More about our weather records

Advertising

Speyer weather history for previous 24 hours

 ConditionsComfort  
Time TempWeatherWind HumidityBarometerVisibility
6:50 PM
Jul 22
82 °FPassing clouds.12 mph45%29.95 "HgN/A
6:20 PM82 °FPassing clouds.9 mph42%29.95 "HgN/A
5:50 PM82 °FPassing clouds.9 mph45%29.95 "HgN/A
5:20 PM82 °FSunny.9 mph45%29.95 "Hg10 mi
4:50 PM82 °FPassing clouds.9 mph48%29.95 "HgN/A
4:20 PM82 °FPassing clouds.10 mph45%29.95 "HgN/A
3:50 PM82 °FPassing clouds.10 mph51%29.95 "HgN/A
3:20 PM81 °FScattered clouds.14 mph54%29.95 "HgN/A
2:50 PM81 °FScattered clouds.10 mph58%29.95 "HgN/A
2:20 PM81 °FPassing clouds.14 mph62%29.95 "HgN/A
1:50 PM79 °FPassing clouds.13 mph65%29.95 "HgN/A
1:20 PM79 °FPassing clouds.12 mph65%29.95 "HgN/A
12:50 PM75 °FPassing clouds.12 mph74%29.95 "HgN/A
12:20 PM75 °FPassing clouds.10 mph74%29.95 "HgN/A
11:50 AM73 °FScattered clouds.10 mph78%29.95 "HgN/A
11:20 AM73 °FPartly sunny.8 mph78%29.95 "HgN/A
10:50 AM72 °FPartly sunny.10 mph83%29.95 "HgN/A
10:20 AM72 °FBroken clouds.12 mph83%29.95 "HgN/A
9:50 AM72 °FPartly sunny.12 mph83%29.92 "HgN/A
9:20 AM70 °FPartly sunny.12 mph88%29.92 "HgN/A
8:50 AM70 °FBroken clouds.10 mph88%29.92 "Hg6 mi
8:20 AM68 °FBroken clouds.8 mph94%29.92 "HgN/A
7:50 AM68 °FBroken clouds.7 mph94%29.92 "Hg4 mi
7:20 AM68 °FPartly sunny.7 mph94%29.92 "Hg4 mi
6:50 AM68 °FLight rain. Broken clouds.9 mph94%29.89 "Hg5 mi
6:20 AM68 °FLight rain. Partly cloudy.10 mph94%29.89 "Hg4 mi
5:50 AM68 °FLight rain. Partly cloudy.9 mph94%29.89 "Hg5 mi
5:20 AM68 °FLight rain. Partly cloudy.10 mph94%29.89 "Hg4 mi
Weather by CustomWeather, © 2014

See weather overviewHow to use our weather pages